sat.trackr.live / text

‹ back to catalog

STARLINK-32634

NORAD 62313 · 2024-239N

PAYLOAD ACTIVE UNKNOWN

§ Identity

Operator
Country
US
Launch date
2024-12-13
Launch site
AFWTR
Launch vehicle
Mass (kg)
RCS (m²)

Purposes: comms

External: N2YO · Heavens-Above · Gunter

§ Orbital elements

Epoch: 2026-09-21T10:35:54.746304Z

Period
93.85 min
Inclination
53.1607°
Eccentricity
0.0001498
Mean motion
15.34394430 rev/d
Perigee alt
461.7 km
Apogee alt
463.7 km
Semi-major
6,840.9 km
B*
5.9846e-4
RAAN
349.1077°
Arg perigee
123.5655°
Mean anomaly
236.5491°
Rev number
9,957

§ Raw data

STARLINK-326341 62313U 24239N   26264.44160586  .00019894  00000+0  59846-3 0  99942 62313  53.1607 349.1077 0001498 123.5655 236.5491 15.34394430 99575

JSON: /api/v1/satellites/62313 · /tle

For live sub-satellite position, see the globe view (requires WebGL).

§ Visibility from observer

Set your observer location to see the next 7 days of passes ≥ 10°. The values pass through the URL so the page stays shareable.

No JS? Fill the form by hand. The geolocation button needs JavaScript.